Veribest, TX

5:07 AM CDT on September 27, 2016 (GMT -0500)
San Angelo Regional-Mathis

Weather History for KSJT - September, 2012

Change the Weather History Date:

Friday, September 14, 2012

  Actual Average Record
Temperature  
Mean Temperature 63 °F 76 °F  
Max Temperature 66 °F 88 °F 102 °F (1960)
Min Temperature 60 °F 64 °F 49 °F (1945)
Degree Days  
Heating Degree Days 2 0  
Month to date heating degree days 2 0  
Since 1 July heating degree days 2 0  
Cooling Degree Days 0 11  
Month to date cooling degree days 247 186  
Year to date cooling degree days 2879 2222  
Growing Degree Days 13 (Base 50)    
Moisture  
Dew Point 54 °F    
Average Humidity 71    
Maximum Humidity 78    
Minimum Humidity 63    
Precipitation  
Precipitation 0.00 in 0.09 in 2.83 in (1967)
Month to date precipitation 1.02 1.26  
Year to date precipitation 15.40 15.33  
Sea Level Pressure  
Sea Level Pressure 30.26 in    
Wind  
Wind Speed 9 mph (North)    
Max Wind Speed 17 mph    
Max Gust Speed 21 mph    
Visibility 10 miles    
Events      
T = Trace of Precipitation, MM = Missing Value Source: NWS Daily Summary

Daily Weather History Graph

Daily Weather History Graph

Search for Another Location

Airport or City:

Trip Planner

Search our weather history database for the weather conditions in past years. The results will help you decide how hot, cold, wet, or windy it might be!

Date:

Astronomy

Sep. 14, 2012 Rise Set
Actual Time 7:25 AM CDT 7:48 PM CDT
Civil Twilight 7:01 AM CDT 8:12 PM CDT
Nautical Twilight 6:33 AM CDT 8:41 PM CDT
Astronomical Twilight 6:04 AM CDT 9:09 PM CDT
Moon 5:55 AM CDT (9/14) 6:45 PM CDT (9/14)
Length of Visible Light 13h 11m
Length of Day
12h 22m
Waning Crescent, 2% of the Moon is Illuminated
Sep 14
Waning Crescent
Sep 15
New
Sep 22
First Quarter
Sep 29
Full
Oct 8
Last Quarter

Hourly Weather History & Observations

Time (CDT) Temp. Dew Point Humidity Pressure Visibility Wind Dir Wind Speed Gust Speed Precip Events Conditions
12:51 AM 62.1 °F 55.9 °F 80% 30.24 in 10.0 mi North 17.3 mph 20.7 mph N/A   Overcast
1:51 AM 62.1 °F 55.0 °F 78% 30.25 in 10.0 mi North 11.5 mph - N/A   Overcast
2:51 AM 62.1 °F 55.0 °F 78% 30.24 in 10.0 mi North 12.7 mph - N/A   Overcast
3:28 AM 60.8 °F 53.6 °F 77% 30.27 in 10.0 mi North 12.7 mph - N/A   Overcast
3:39 AM 60.8 °F 53.6 °F 77% 30.27 in 10.0 mi North 15.0 mph - N/A   Overcast
3:51 AM 61.0 °F 54.0 °F 78% 30.24 in 10.0 mi North 11.5 mph - N/A   Overcast
4:51 AM 60.8 °F 53.6 °F 77% 30.26 in 10.0 mi North 15.0 mph - N/A   Overcast
5:51 AM 60.1 °F 54.0 °F 80% 30.25 in 10.0 mi North 11.5 mph - N/A   Overcast
6:47 AM 60.8 °F 53.6 °F 77% 30.28 in 10.0 mi North 10.4 mph - N/A   Overcast
6:51 AM 60.1 °F 54.0 °F 80% 30.25 in 10.0 mi NNW 8.1 mph - N/A   Overcast
6:59 AM 60.8 °F 53.6 °F 77% 30.28 in 10.0 mi NNW 9.2 mph - N/A   Overcast
7:34 AM 60.8 °F 53.6 °F 77% 30.29 in 10.0 mi North 16.1 mph - N/A   Overcast
7:51 AM 60.1 °F 53.1 °F 78% 30.27 in 10.0 mi North 13.8 mph - N/A   Overcast
7:58 AM 60.8 °F 53.6 °F 77% 30.30 in 10.0 mi North 12.7 mph - N/A   Overcast
8:51 AM 60.1 °F 53.1 °F 78% 30.27 in 10.0 mi NNW 9.2 mph - N/A   Overcast
9:51 AM 62.1 °F 54.0 °F 75% 30.27 in 10.0 mi North 11.5 mph - N/A   Overcast
10:02 AM 62.6 °F 53.6 °F 72% 30.30 in 10.0 mi North 10.4 mph - N/A   Overcast
10:51 AM 62.6 °F 53.6 °F 72% 30.31 in 10.0 mi North 10.4 mph - N/A   Overcast
11:51 AM 63.0 °F 54.0 °F 72% 30.28 in 10.0 mi North 6.9 mph - N/A   Overcast
12:51 PM 64.0 °F 54.0 °F 70% 30.29 in 10.0 mi North 5.8 mph - N/A   Overcast
1:51 PM 64.0 °F 54.0 °F 70% 30.28 in 10.0 mi NNW 10.4 mph - N/A   Overcast
2:51 PM 64.9 °F 54.0 °F 68% 30.25 in 10.0 mi North 8.1 mph - N/A   Overcast
3:51 PM 64.0 °F 54.0 °F 70% 30.25 in 10.0 mi NW 8.1 mph - N/A   Overcast
4:51 PM 66.0 °F 54.0 °F 65% 30.23 in 10.0 mi North 4.6 mph - N/A   Overcast
5:51 PM 66.0 °F 54.0 °F 65% 30.22 in 10.0 mi NNW 9.2 mph - N/A   Overcast
6:51 PM 66.0 °F 55.0 °F 68% 30.22 in 10.0 mi North 9.2 mph - N/A   Overcast
7:51 PM 64.9 °F 55.0 °F 70% 30.23 in 10.0 mi North 11.5 mph - N/A   Overcast
8:23 PM 64.4 °F 55.4 °F 73% 30.26 in 10.0 mi North 10.4 mph - N/A   Overcast
8:51 PM 64.0 °F 55.0 °F 73% 30.24 in 10.0 mi NNE 8.1 mph - N/A   Overcast
9:51 PM 64.0 °F 55.0 °F 73% 30.25 in 10.0 mi North 9.2 mph - N/A   Overcast
10:51 PM 63.0 °F 54.0 °F 72% 30.26 in 10.0 mi North 6.9 mph - N/A   Overcast
11:04 PM 62.6 °F 55.4 °F 77% 30.29 in 10.0 mi NNE 9.2 mph - N/A   Overcast
11:17 PM 62.6 °F 53.6 °F 72% 30.29 in 10.0 mi NNE 5.8 mph - N/A   Overcast
11:51 PM 63.0 °F 54.0 °F 72% 30.26 in 10.0 mi NE 4.6 mph - N/A   Overcast